Regional Weather Roundup
Issued by NWS

Home | Current Version | Previous Version | Text Only | Print | Product List | Glossary Off
Versions: 1 2 3 4 5 6 7 8 9 10 11 12 13 14 15 16 17 18 19 20 21 22 23 24 25 26 27 28

000
ASUS45 KTFX 291810
RWRMT
MONTANA REGIONAL WEATHER ROUNDUP
NATIONAL WEATHER SERVICE GREAT FALLS MT
1200 PM MDT THU SEP 29 2016

NOTE: "FAIR" INDICATES FEW OR NO CLOUDS BELOW 12000 FEET WITH NO
SIGNIFICANT WEATHER AND/OR OBSTRUCTIONS TO VISIBILITY.

MTZ001>007-043-291900-
WEST OF THE DIVIDE

CITY           SKY/WX    TMP DP  RH WIND       PRES   REMARKS
KALISPELL      MOSUNNY   68  46  45 N6        30.04F
MISSOULA       SUNNY     67  46  47 CALM      30.06F
BUTTE          SUNNY     70  42  36 N5        30.19F
MULLAN PASS    CLOUDY    60  42  51 VRB6      30.14F
ANACONDA         N/A     73  36  25 SE9       30.13F
DEER LODGE       N/A     72  43  35 NE5       30.14F
EUREKA           N/A     57  43  58 CALM      30.10S
HAMILTON         N/A     66  43  42 NW5       30.06F
LIBBY            N/A     55  48  76 CALM      30.05F
PLAINS           N/A     65  49  56 SW2       30.05R
RONAN            N/A     68  49  50 CALM      30.08F
$$

MTZ008-052>055-291900-
SOUTHWEST MONTANA

CITY           SKY/WX    TMP DP  RH WIND       PRES   REMARKS
BOZEMAN        PTSUNNY   62  48  60 CALM      30.18F
DILLON         SUNNY     67  40  37 W3        30.19F
W YELLOWSTONE  PTSUNNY   54  41  62 E5        30.35F
ENNIS          MOSUNNY   70  41  35 S17G25    30.25S
THREE FORKS      N/A     60  35  39 CALM      30.14F
TWIN BRIDGES     N/A     64  44  48 SE3       30.15F
$$

MTZ009-010-012-014-046-048-049-054-291900-
EAST SLOPES AND CENTRAL MONTANA

CITY           SKY/WX    TMP DP  RH WIND       PRES   REMARKS
CUT BANK       SUNNY     62  49  62 E8        30.10F
GREAT FALLS    SUNNY     67  48  50 E6        30.08F
MALMSTROM AFB  SUNNY     65  50  59 N7        30.09F
HELENA         SUNNY     63  46  54 CALM      30.13F
AUGUSTA          N/A     64  48  57 SE6       30.11S
BOWMANS CRNR   MOCLDY    68  46  44 S21G26    30.07F
CHOTEAU          N/A     64  48  55 CALM      30.12S
CONRAD           N/A     62  54  75 N5        30.11F
FAIRFIELD        N/A     65  48  54 SE6       30.09F
POWER            N/A     64  50  61 N6        30.09F
RAYNESFORD       N/A     71  50  47 NW9       30.09F
$$

MTZ011-013-016-021-045-047-050-051-291900-
NORTH CENTRAL MONTANA

CITY           SKY/WX    TMP DP  RH WIND       PRES   REMARKS
HAVRE          SUNNY     63  51  65 CALM      30.08F
LEWISTOWN      PTSUNNY   78  47  33 VRB5      30.10F
N BAR RANCH      N/A     73  52  46 VRB5G12   30.16S
CHINOOK          N/A     63  54  72 CALM      30.08F
DENTON           N/A     70  51  49 NE5       30.06F
GEYSER           N/A     64  48  57 SE6       30.11S
GRASS RANGE      N/A     73  49  43 NE1       30.07F
JUDITH GAP       N/A     67  51  56 S16       30.15F
ROY              N/A     69  55  59 MISG      30.08F
STANFORD         N/A     69  52  54 N6        30.11S
WINIFRED         N/A     65  53  66 MISG      30.09S
$$

MTZ017>020-022>027-061-062-291900-
NORTHEAST MONTANA

CITY           SKY/WX    TMP DP  RH WIND       PRES   REMARKS
GLASGOW        SUNNY     72  46  39 SE14      30.10F
JORDAN           N/A     73  48  41 SE7       30.10F
SIDNEY         SUNNY     74  47  38 SE14      30.18F
WOLF POINT     SUNNY     79  46  31 SE8       30.12F
PLENTYWOOD       N/A     73  41  31 SE17G25   30.18F
POPLAR           N/A     75  45  33 SE14G21   30.15S
SCOBEY           N/A     73  42  32 SE7       30.13F
$$

MTZ028>42-056>058-291900-
SOUTHCENTRAL AND SOUTHEAST MONTANA

CITY           SKY/WX    TMP DP  RH WIND       PRES   REMARKS
BAKER          SUNNY     70  44  39 SE24G31   30.21F
BILLINGS       PTSUNNY   64  50  60 SW5       30.14S
LIVINGSTON     CLOUDY    64  47  53 CALM      30.17F
MILES CITY     SUNNY     71  46  40 SE13      30.13F
BIG TIMBER     SUNNY     66  48  52 S5        30.19F
EKALAKA          N/A     75  41  29 SE15      30.17F
FORSYTH          N/A     73  48  40 SE5       30.11F
HARLOWTON      MOCLDY    63  52  67 S6        30.15F
LAUREL           N/A     64  50  60 CALM      30.12F
ROUNDUP          N/A     70  49  47 S8        30.03F
$$

REGIONAL REPORTS...DAKOTAS

CITY           SKY/WX    TMP DP  RH WIND       PRES   REMARKS
WILLISTON        N/A     70  43  37 SE14G22   30.22F
MINOT            N/A     67  46  47 SE16G25   30.31F
DICKINSON        N/A     68  43  40 SE18      30.25F
BEACH            N/A     70  43  37 SE26G35   30.24S
CROSBY           N/A     72  37  28 S16       30.25F
WATFORD CITY     N/A     70  45  40 SE15      30.23F
BISMARCK         N/A     66  46  48 SE21G28   30.36F
GRAND FORKS    PTSUNNY   63  46  54 S13       30.45F
FARGO          PTSUNNY   64  45  49 SE10G22   30.46F
BUFFALO SD       N/A     73  42  32 SE21G28   30.17F
RAPID CITY       N/A     72  43  35 S17       30.28F
$$

REGIONAL REPORTS...WYOMING/IDAHO/WASHINGTON

CITY           SKY/WX    TMP DP  RH WIND       PRES   REMARKS
GILLETTE         N/A     71  45  39 SE17      30.22F
SHERIDAN         N/A     68  49  50 NW3       30.16F
BUFFALO WY       N/A     74  46  36 S13       30.22S
CODY             N/A     73  39  29 CALM      30.22S
YELLOWSTONE LA   N/A     53  43  68 E3        30.44S
IDAHO FALLS    MOSUNNY   72  46  39 S6        30.23S
SALMON         SUNNY     64  39  39 N3        30.13F
BOISE          MOSUNNY   84  42  22 SE16G25   30.02S
SPOKANE        PTSUNNY   66  46  48 NE6       29.99S
$$

REGIONAL REPORTS...ALBERTA

CITY           SKY/WX    TMP DP  RH WIND       PRES   REMARKS
CALGARY        PTSUNNY   52  41  66 N5        30.14F
LETHBRIDGE     MOSUNNY   54  43  66 NW10      30.13F
MEDICINE HAT   MOSUNNY   59  46  63 VRB6      30.10S
WATERTON GATE    N/A     57  43  58 NE3         N/A
MILK RIVER       N/A     59  46  63 N9          N/A
ONEFOUR          N/A     66  50  55 N2          N/A
$$

REGIONAL REPORTS...SASKATCHEWAN

CITY           SKY/WX    TMP DP  RH WIND       PRES   REMARKS
SWIFT CURRENT  SUNNY     68  52  56 CALM      30.10S
REGINA         MOSUNNY   70  45  40 SE18G26   30.15F
SASKATOON      MOSUNNY   59  48  67 E8        30.17S
CYPRESS HILLS    N/A     68  50  52 E5          N/A
VAL MARIE        N/A     72  48  43 SE10        N/A
ASSINIBOIA       N/A     57  37  47 NE5         N/A
$$




USA.gov is the U.S. government's official web portal to all federal, state and local government web resources and services.